Location: ??????
(36.0418°N, 43.6351°E)
Time: 22:21:31
(UTC+00:00)

Cosmos 2344 - Pass Details

Date: 07 March 2021
Orbit: 1241 x 3001 km, 63.3° (Epoch: 18 April)

Event Time Altitude Azimuth Distance (km) Brightness Sun altitude
Exits shadow 01:56:15 27° 281° (WNW) 2,179 4.3 -19.3°
Maximum altitude 01:58:41 33° 315° (NW) 1,968 4.3 -18.8°
Drops below altitude 10° 02:05:34 10° 18° (NNE) 3,379 6.1 -17.4°
Sets 02:09:00 0° 28° (NNE) 4,501 6.9 -16.7°
